Valladolid Airport, Spain

10:38 AM CET en Enero 24, 2019 (GMT +0100)
Villanubla

Tiempo Historia de LEVD - Enero, 2019

Change the Weather History Date:

Sábado, Enero 12, 2019

  Actual Average Record
Temperature  
Temperatura media 36 ° F -  
Temperatura máxima 46 ° F - - ()
Temperatura mínima 26 ° F - - ()
Degree Days  
Grados día de calefacción 29    
Moisture  
Punto de rocío 31 ° F    
Average Humidity 79    
Maximum Humidity 100    
Minimum Humidity 57    
Precipitación  
Precipitación 0.00 pul - - ()
Presión al nivel del mar  
Presión al nivel del mar 30.42 pul    
Viento  
Velocidad del viento 8 mph ()    
Velocidad máxima del viento 16 mph    
Max Gust Speed -    
Visibilidad 7.4 Millas    
Eventos      
T = Trace of Precipitation, MM = Missing Value Source: Averaged Metar Reports

Daily Weather History Graph

Daily Weather History Graph

Search for Another Location

Airport or City:

Astronomía

Jan. 12, 2019 Salida Puesta
Hora real 8:45 AM CET 6:10 PM CET
Crepúsculo civil 8:14 AM CET 6:40 PM CET
Crepúsculo náutico 7:40 AM CET 7:15 PM CET
Crepúsculo astronómico 7:06 AM CET 7:48 PM CET
Luna 12:19 PM CET (1/12) Sin puesta de luna
Horas de luz 10h 26m
Horas de luz
9h 24m
Creciente, 33% of the Moon is Illuminated
Ene 12
Creciente
Ene 14
Cuarto creciente
Ene 21
Luna llena
Ene 27
Cuarto menguante
Feb 4
Nueva

Hourly Weather History & Observations

Hora (CET) Temp. Vientos helados Punto de rocío Humedad Presión Visibilidad Wind Dir Velocidad del viento Velocidad de ráfagas Precip Eventos Condiciones
7:00 AM 29 ° F - 28 ° F 94%  pul 12 mi OSO 1.2 mph - -   Despejado
7:00 AM 30.2 ° F - 28.4 ° F 93% 30.39 pul - OSO 1.2 mph - N/A   Despejado
7:30 AM 26.6 ° F 21.2 ° F 26.6 ° F 100% 30.42 pul - Norte 4.6 mph - N/A   Despejado
8:00 AM 28.4 ° F 20.4 ° F 26.6 ° F 93% 30.42 pul - NE 8.1 mph - N/A   Despejado
8:30 AM 28.4 ° F 20.4 ° F 26.6 ° F 93% 30.42 pul - NE 8.1 mph - N/A   Despejado
9:00 AM 28.4 ° F 23.3 ° F 26.6 ° F 93% 30.42 pul - NE 4.6 mph - N/A   Despejado
9:30 AM 30.2 ° F 23.4 ° F 28.4 ° F 93% 30.42 pul 6.2 mi NE 6.9 mph - N/A   Muy nublado
10:00 AM 33.8 ° F 27.0 ° F 32.0 ° F 93% 30.42 pul 6.2 mi ENE 8.1 mph - N/A   Muy nublado
10:30 AM 35.6 ° F 29.2 ° F 32.0 ° F 87% 30.45 pul 6.2 mi Este 8.1 mph - N/A   Muy nublado
11:00 AM 35.6 ° F 28.6 ° F 33.8 ° F 93% 30.45 pul 6.2 mi ENE 9.2 mph - N/A   Muy nublado
11:30 AM 39.2 ° F 32.5 ° F 33.8 ° F 81% 30.45 pul 6.2 mi ENE 10.4 mph - N/A   Nubes dispersas
12:00 PM 41.0 ° F 33.5 ° F 33.8 ° F 76% 30.45 pul 6.2 mi ENE 13.8 mph - N/A   Muy nublado
12:30 PM 41.0 ° F 33.1 ° F 33.8 ° F 76% 30.45 pul 6.2 mi ENE 15.0 mph - N/A   Nubes dispersas
1:00 PM 44 ° F - 34 ° F 57%  pul 16 mi Este 15.0 mph - -   Parcialmente nublado
1:00 PM 44.6 ° F 37.8 ° F 33.8 ° F 66% 30.42 pul 6.2 mi ENE 15.0 mph - N/A   Nubes dispersas
1:30 PM 42.8 ° F 35.4 ° F 33.8 ° F 70% 30.42 pul 6.2 mi ENE 15.0 mph - N/A   Nubes dispersas
2:00 PM 42.8 ° F 36.2 ° F 33.8 ° F 70% 30.42 pul 6.2 mi NE 12.7 mph - N/A   Muy nublado
2:30 PM 44.6 ° F 38.4 ° F 33.8 ° F 66% 30.39 pul 6.2 mi ENE 12.7 mph - N/A   Muy nublado
3:00 PM 46.4 ° F 39.8 ° F 32.0 ° F 57% 30.39 pul 6.2 mi NE 16.1 mph - N/A   Muy nublado
3:30 PM 44.6 ° F 38.8 ° F 32.0 ° F 61% 30.39 pul 6.2 mi NE 11.5 mph - N/A   Muy nublado
4:00 PM 44.6 ° F 37.8 ° F 32.0 ° F 61% 30.39 pul 6.2 mi ENE 15.0 mph - N/A   Muy nublado
4:30 PM 44.6 ° F 37.8 ° F 32.0 ° F 61% 30.39 pul 6.2 mi ENE 15.0 mph - N/A   Muy nublado
5:00 PM 42.8 ° F 35.4 ° F 32.0 ° F 66% 30.42 pul 6.2 mi NE 15.0 mph - N/A   Muy nublado
5:30 PM 42.8 ° F 35.8 ° F 33.8 ° F 70% 30.42 pul 6.2 mi ENE 13.8 mph - N/A   Muy nublado
6:00 PM 41.0 ° F 33.9 ° F 32.0 ° F 70% 30.42 pul 6.2 mi ENE 12.7 mph - N/A   Muy nublado
6:30 PM 37.4 ° F 31.4 ° F 32.0 ° F 81% 30.42 pul 6.2 mi ENE 8.1 mph - N/A   Parcialmente nublado
7:00 PM 35 ° F - 30 ° F 76%  pul 16 mi ENE 9.2 mph - -   Despejado
7:00 PM 35.6 ° F 28.6 ° F 30.2 ° F 81% 30.42 pul - ENE 9.2 mph - N/A   Despejado
7:30 PM 35.6 ° F 28.6 ° F 30.2 ° F 81% 30.42 pul - NE 9.2 mph - N/A   Despejado
8:00 PM 33.8 ° F 28.6 ° F 28.4 ° F 81% 30.42 pul - ENE 5.8 mph - N/A   Despejado
8:30 PM 33.8 ° F 27.0 ° F 30.2 ° F 87% 30.42 pul - ENE 8.1 mph - N/A   Despejado
9:00 PM 33.8 ° F 26.4 ° F 30.2 ° F 87% 30.45 pul - ENE 9.2 mph - N/A   Despejado
9:30 PM 33.8 ° F 28.6 ° F 32.0 ° F 93% 30.45 pul - ENE 5.8 mph - N/A   Despejado